Regional Weather Roundup
Issued by NWS

Home | Current Version | Previous Version | Graphics & Text | Print | Product List | Glossary On
Versions: 1 2 3 4 5 6 7 8 9 10 11 12 13 14 15 16 17 18 19 20 21 22 23 24 25 26 27 28 29 30 31 32 33 34 35 36 37 38 39 40 41 42 43 44 45 46 47 48 49 50
000
ASUS43 KMPX 281101
RWRMN
WEATHER ROUNDUP FOR MINNESOTA
NATIONAL WEATHER SERVICE TWIN CITIES/CHANHASSEN MN
500 AM CST SUN DEC 28 2014


NOTE: "FAIR" INDICATES FEW OR NO CLOUDS BELOW 12,000 FEET WITH NO
SIGNIFICANT WEATHER AND/OR OBSTRUCTIONS TO VISIBILITY. N/A MEANS
CURRENT SKY AND/OR WEATHER CONDITIONS ARE NOT AVAILABLE.

MNZ060>063-068>070-281200-
   Twin Cities Metro

CITY           SKY/WX    TMP DP  RH WIND       PRES   REMARKS
TWIN CITIES    CLEAR     10   6  84 SW3       30.10S
ST PAUL        CLEAR     10   6  84 CALM      30.12S
CRYSTAL        CLEAR     10   6  84 SW3       30.08S
BLAINE         PTCLDY    12   9  85 SW5       30.08S WCI   4
LAKEVILLE      CLEAR      7   5  92 CALM      30.09S
EDEN PRAIRIE   CLEAR      8   5  87 SW5       30.09S WCI   0
SOUTH ST PAUL  CLEAR     11   8  85 CALM      30.10S
LAKE ELMO      FAIR      12  10  92 SW5       30.09S WCI   4
$$
MNZ001>005-007-008-013>017-022>024-027-028-281200-
   Northwest Minnesota

CITY           SKY/WX    TMP DP  RH WIND       PRES   REMARKS
BEMIDJI        LGT SNOW   6   2  84 NW7       30.07S WCI  -6
HALLOCK        CLEAR     -9 -15  77 N10       30.22S WCI -28
ROSEAU         CLEAR     -6 -11  77 NW8       30.17R WCI -21
WARROAD        CLEAR     -6 -11  77 NW9       30.15R WCI -22
THIEF RVR FALL CLEAR     -4  -8  84 NW8       30.15R WCI -19
CROOKSTON      CLEAR     -2  -9  71 N14       30.21R WCI -21
FOSSTON        PTCLDY    -2  -8  78 N9        30.13R WCI -18
DETROIT LAKES  CLOUDY    14  12  92 N12       30.08R WCI   0
MOORHEAD       CLOUDY    10   7  85 N17       30.14R WCI  -7
PARK RAPIDS    CLOUDY    15   9  76 N7        30.04R WCI   5
MAHNOMEN       FAIR       2  -2  81 N12       30.11R WCI -14
$$
MNZ006-009>011-018-025>026-281200-
   North Central Minnesota

CITY           SKY/WX    TMP DP  RH WIND       PRES   REMARKS
BAUDETTE       CLOUDY    -1  -7  75 NW12      30.11R WCI -18
FLAG ISLAND    CLEAR     -8 -11  84 NW14      30.14R WCI -28
INTL FALLS     MOCLDY    -3  -8  79 NW9       30.09R WCI -19
WASKISH        CLOUDY    -2  -6  84 NW3       30.11S
BIG FORK       CLEAR      0  -4  85 NW5       30.08R WCI -10
LONGVILLE      FLURRIES  14  10  85 CALM      30.05R
GRAND RAPIDS   CLOUDY    12   3  67 NW13      30.02R WCI  -3
CRANE LAKE     CLOUDY     1  -2  85 NW9       30.09R WCI -14
ORR            PTCLDY     1  -4  78 NW10      30.02R WCI -14
COOK           PTCLDY     3   0  85 NW5       30.04R WCI  -6
WALKER         CLOUDY    12   7  79 N7        30.05R WCI   2
$$
MNZ012-019>021-037-281200-
   Northeast Minnesota

CITY           SKY/WX    TMP DP  RH WIND       PRES   REMARKS
DULUTH         FLURRIES  17   9  70 NW9       29.99R WCI   6
ELY            CLEAR      5   0  78 NW9       29.99S WCI  -9
HIBBING        CLOUDY    13   5  70 NW13      30.02R WCI  -2
EVELETH        MOCLDY    12   7  79 NW12G17   30.02R WCI  -2
DULUTH HARBOR  CLOUDY    21  14  73 W10       30.06R WCI  10
TWO HARBORS    CLOUDY    19  10  68 NW5       29.99R WCI  13
SILVER BAY     MOCLDY    16   9  73 W5        29.98R WCI   9
GRAND MARAIS     N/A     15   5  64 VRB7G21   29.98S WCI   5
G MARAIS ARPRT PTCLDY     7   0  72 W8        29.90S WCI  -6
$$
MNZ029>031-032-039>041-046>048-054>057-064-281200-
   West Central Minnesota

CITY           SKY/WX    TMP DP  RH WIND       PRES   REMARKS
FERGUS FALLS   CLOUDY    18  16  93 NW9       30.09S WCI   6
WHEATON        CLOUDY    18  16  93 NW7       30.10S WCI   8
MORRIS         PTCLDY    14  12  92 NW5       30.06R WCI   6
ALEXANDRIA     CLOUDY    17  15  92 W3        30.04R
ELBOW LAKE     MOCLDY    17  16  93 NW5       30.05S WCI  10
WADENA         CLOUDY    19  18  93 NW9       30.03R WCI   9
GLENWOOD       PTCLDY    12  12 100 W6        30.04S WCI   3
APPLETON       PTCLDY    10   9  92 W3        30.08S
BENSON         MOCLDY    10   7  85 CALM      30.06S
ORTONVILLE     MOCLDY    16  10  79 NW6       30.08R WCI   7
MADISON        PTCLDY    18  16  93 NW6       30.09R WCI   9
WILLMAR        FAIR      14  10  85 SW5       30.08R WCI   6
$$
MNZ033>034-036-042>043-049>051-058-059-281200-
   Central Minnesota

CITY           SKY/WX    TMP DP  RH WIND       PRES   REMARKS
ST CLOUD       PTCLDY    14   9  80 S3        30.06S
SAUK CENTRE    CLOUDY    12  10  92 CALM      30.05S
PAYNESVILLE    CLEAR      8   8  96 SW6       30.06S WCI  -2
AITKIN         LGT SNOW  23  16  74 NW3       30.02R
PINE RIVER     FLURRIES  18  12  79 N10       30.07R WCI   6
BRAINERD       CLOUDY    21  17  84 NW6       30.03S WCI  13
STAPLES        CLOUDY    19  18  93 N8        30.03R WCI   9
LONG PRAIRIE   CLOUDY    18  16  93 SW5       30.04S WCI  11
LITTLE FALLS   CLOUDY    19  16  86 CALM      30.04F
LITCHFIELD     CLEAR     10  10 100 CALM      30.07S
BUFFALO        MOCLDY     8   5  88 CALM      30.09S
MAPLE LAKE     PTCLDY    10   8  92 CALM      30.08R
$$
MNZ037-044-045-052-053-281200-
   East Central Minnesota

CITY           SKY/WX    TMP DP  RH WIND       PRES   REMARKS
PRINCETON      MOCLDY    18  12  79 CALM      30.06R
MORA           CLOUDY    16  12  86 CALM      30.07R
CAMBRIDGE      CLOUDY    16   9  73 CALM      30.05S
RUSH CITY      CLOUDY    13  10  90 CALM      30.07S
MOOSE LAKE     FLURRIES  19  18  93 CALM      30.01S
HINCKLEY       FLURRIES  18  14  86 CALM      30.05S
CLOQUET        CLOUDY    18  10  73 NW7       30.00S WCI   8
MCGREGOR       CLOUDY    21  18  86 NW7       30.03R WCI  13
$$
MNZ071>073-080-081-089-090-097-098-281200-
   Southwest Minnesota

CITY           SKY/WX    TMP DP  RH WIND       PRES   REMARKS
MONTEVIDEO     PTCLDY    14  12  92 NW5       30.09R WCI   6
GRANITE FALLS  PTCLDY    11   8  87 SW5       30.10R WCI   3
CANBY          PTCLDY    15  12  88 W7        30.09R WCI   5
MARSHALL       PTCLDY    14   9  79 W9        30.07S WCI   2
REDWOOD FALLS  MOCLDY    12   8  84 SW7       30.08S WCI   1
OLIVIA         PTCLDY    10   9  92 SW5       30.08R WCI   2
PIPESTONE      FOG        3   0  85 CALM      30.05S VSB 3/4
WINDOM         PTCLDY     7   3  85 CALM      30.07S
WORTHINGTON    CLEAR     10 -33  12 SW9       30.06F WCI  -2
JACKSON        CLEAR     12   9  85 SW3       30.07S
TRACY          PTCLDY    14  11  87 SW9       30.07S WCI   2
SLAYTON        PTCLDY    11   8  89 CALM      30.06S
$$
MNZ065>067-074>077-082>085-091>093-281200-
   South Central Minnesota

CITY           SKY/WX    TMP DP  RH WIND       PRES   REMARKS
MANKATO        MOCLDY     9   3  78 S6        30.08S WCI  -1
NEW ULM        PTCLDY    10   7  85 W3        30.08F
ST JAMES       PTCLDY    12   9  85 SW3       30.09F
FAIRMONT       CLEAR     10   5  79 SW5       30.08S WCI   2
GLENCOE        MOCLDY     7   6  92 CALM      30.08S
FARIBAULT      PTCLDY     7   3  85 CALM      30.09S
OWATONNA       CLEAR      9   5  85 S5        30.08S WCI   0
ALBERT LEA     CLEAR      9   7  92 SW3       30.09S
$$
MNZ078>079-086>088-094>096-281200-
   Southeast Minnesota

CITY           SKY/WX    TMP DP  RH WIND       PRES   REMARKS
ROCHESTER      CLEAR      7   3  84 SW10      30.08F WCI  -8
RED WING       CLOUDY     9   5  85 CALM      30.10S
STANTON        PTCLDY     7   3  84 S5        30.08S WCI  -2
DODGE CENTER   PTCLDY     7   5  92 SW6       30.06F WCI  -3
WINONA         CLEAR     10   9  92 CALM      30.14S
AUSTIN         PTCLDY     7   3  85 S3        30.09S
PRESTON        CLEAR      8   6  89 SW6       30.09F WCI  -2
$$
ABBREVIATIONS USED IN REMARKS
   TC - TEMPERATURES IN CELSIUS
  WCI - WIND CHILL INDEX
   HX - HEAT INDEX
  VSB - VISIBILITY
$$


USA.gov is the U.S. government's official web portal to all federal, state and local government web resources and services.